• Processing (Info)

  • MPEC 2019-V61 : 2019 VQ1

    The following Minor Planet Electronic Circular may be linked-to from your own Web pages, but must not otherwise be redistributed electronically.

    A form allowing access to any MPEC is at the bottom of this page.


    Read MPEC 2019-V60 Read MPEC 2019-V62


    M.P.E.C. 2019-V61                              Issued 2019 November 5, 02:38 UT
    
         The Minor Planet Electronic Circulars contain information on unusual
             minor planets and routine data on comets.  They are published
        on behalf of Division F of the International Astronomical Union by the
              Minor Planet Center, Smithsonian Astrophysical Observatory,
                              Cambridge, MA 02138, U.S.A.
    
                 Prepared using the Tamkin Foundation Computer Network
    
                                  MPC@CFA.HARVARD.EDU
                URL https://www.minorplanetcenter.net/    ISSN 1523-6714
    
                                    2019 VQ1                                 
    
    
    Observations:
         K19V01Q  C2019 10 18.44267001 09 15.402+37 25 06.93         21.6 GVEV061F51
         K19V01Q  C2019 10 18.45717101 09 11.245+37 25 21.04         22.3 GVEV061F51
         K19V01Q  C2019 10 18.48731901 09 02.674+37 25 49.46         22.1 GVEV061F51
         K19V01Q  C2019 10 22.46330200 47 38.045+38 27 49.55         21.5 GVEV061F51
         K19V01Q  C2019 10 22.47463600 47 33.550+38 27 58.58         21.8 GVEV061F51
         K19V01Q  C2019 10 22.48464800 47 29.616+38 28 06.71         21.9 GVEV061F51
         K19V01Q  C2019 10 22.49460700 47 25.653+38 28 14.71         21.8 GVEV061F51
         K19V01Q  C2019 11 02.23634722 54 20.563+38 18 27.58         20.3 GVEV061F51
         K19V01Q  C2019 11 02.24855722 54 08.494+38 18 02.36         20.5 GVEV061F51
         K19V01Q  C2019 11 02.26074922 53 56.442+38 17 37.23         20.5 GVEV061F51
         K19V01Q* C2019 11 03.17095 22 38 48.93 +37 40 12.4          20.3 GVEV061G96
         K19V01Q  C2019 11 03.17614 22 38 43.39 +37 39 56.7          20.7 GVEV061G96
         K19V01Q  C2019 11 03.18133 22 38 38.00 +37 39 41.8          20.5 GVEV061G96
         K19V01Q  C2019 11 03.18653 22 38 32.45 +37 39 26.9          20.5 GVEV061G96
         K19V01Q  C2019 11 03.21276622 38 04.64 +37 38 08.3          20.7 GVEV061H01
         K19V01Q  C2019 11 03.22180422 37 55.12 +37 37 41.4          20.2 GVEV061H01
         K19V01Q  C2019 11 03.22861322 37 47.96 +37 37 21.3          20.3 GVEV061H01
         K19V01Q  C2019 11 03.23409822 37 42.19 +37 37 04.9          20.1 GVEV061H01
         K19V01Q  C2019 11 03.23458 22 37 41.80 +37 37 06.1                VEV061G96
         K19V01Q  C2019 11 03.23533 22 37 40.93 +37 37 03.6                VEV061G96
         K19V01Q  C2019 11 03.23608 22 37 40.26 +37 37 01.2          20.7 GVEV061G96
         K19V01Q  C2019 11 03.23684 22 37 39.52 +37 36 59.6                VEV061G96
         K19V01Q  C2019 11 04.08068 22 22 47.31 +36 51 26.4          21.3 GVEV061I52
         K19V01Q  C2019 11 04.08166 22 22 46.25 +36 51 23.5          20.6 GVEV061I52
         K19V01Q  C2019 11 04.08263 22 22 45.19 +36 51 20.1          21.1 GVEV061I52
         K19V01Q  C2019 11 04.08360 22 22 44.11 +36 51 15.7          20.7 GVEV061I52
         K19V01Q  C2019 11 04.09045822 22 36.15 +36 50 50.2          20.1 GVEV061H01
         K19V01Q  C2019 11 04.09635622 22 29.56 +36 50 28.8          21.1 GVEV061H01
         K19V01Q  C2019 11 04.10474322 22 20.18 +36 49 58.3          20.6 GVEV061H01
         K19V01Q  C2019 11 04.11156222 22 12.56 +36 49 33.3          20.4 GVEV061H01
    
    Observer details:
    F51 Pan-STARRS 1, Haleakala.  Observers J. Bulger, K. Chambers, T. Lowe, E. 
       Magnier, A. Schultz, M. Willman.  Measurers S. Chastel, M. Huber, Y. 
       Ramanjooloo, R. Wainscoat, R. Weryk.  1.8-m Ritchey-Chretien + CCD.
    G96 Mt. Lemmon Survey.  Observer H. Groeller.  Measurers E. J. Christensen, G. 
       A. Farneth, D. C. Fuls, A. R. Gibbs, A. D. Grauer, H. Groeller, R. A. 
       Kowalski, S. M. Larson, G. J. Leonard, T. A. Pruyne, D. Rankin, R. L. Seaman,
        F. C. Shelly, K. W. Wierzchos.  1.5-m reflector + 10K CCD.
    H01 Magdalena Ridge Observatory, Socorro.  Observers W. H. Ryan, E. V. Ryan.  
        Measurer W. H. Ryan.  2.4-m f/8.9 Ritchey-Chretien + CCD.
    I52 Steward Observatory, Mt. Lemmon Station.  Observers R. A. Kowalski, K. W. 
       Wierzchos.  Measurers E. J. Christensen, G. A. Farneth, D. C. Fuls, A. R. 
       Gibbs, A. D. Grauer, H. Groeller, R. A. Kowalski, S. M. Larson, G. J. 
       Leonard, T. A. Pruyne, D. Rankin, R. L. Seaman, F. C. Shelly, K. W. 
       Wierzchos.  1.0-m reflector + CCD.
    
    Orbital elements:
    2019 VQ1                                                 Earth MOID = 0.0256 AU
    Epoch 2019 Apr. 27.0 TT = JDT 2458600.5                 Bell
    M 256.31365              (2000.0)            P               Q
    n   0.42392301     Peri.  247.42623     -0.78982228     -0.59664942
    a   1.7550038      Node   255.65579     +0.60270547     -0.71207195
    e   0.7157255      Incl.    8.43369     +0.11369640     -0.37008514
    P   2.32           H   23.1           G   0.15           U   7
    Residuals in seconds of arc
    191018 F51  0.0   0.2-    191103 G96  0.4+  0.5+    191103 G96  0.1+  0.3-
    191018 F51  0.2-  0.1+    191103 G96  0.4-  0.3-    191103 G96  0.8+  0.4+
    191018 F51  0.2+  0.1+    191103 G96  0.5+  0.3-    191104 I52  0.4-  0.3-
    191022 F51  0.2+  0.1-    191103 G96  0.3-  0.2-    191104 I52  0.0   0.4+
    191022 F51  0.0   0.2-    191103 H01  0.0   0.1+    191104 I52  0.3+  0.4+
    191022 F51  0.1+  0.0     191103 H01  0.0   0.0     191104 I52  0.3+  0.5-
    191022 F51  0.3-  0.2+    191103 H01  0.1+  0.1+    191104 H01  0.0   0.0
    191102 F51  0.2-  0.0     191103 H01  0.1+  0.1+    191104 H01  0.0   0.0
    191102 F51  0.0   0.1-    191103 G96  0.4-  0.1+    191104 H01  0.1-  0.0
    191102 F51  0.2+  0.1+    191103 G96  1.3-  0.1-    191104 H01  0.0   0.1-
    
    Ephemeris:
    2019 VQ1                 a,e,i = 1.76, 0.72, 8                   q = 0.4989
    Date    TT    R. A. (2000) Decl.     Delta      r    Elong.  Phase     V
    2019 10 06    01 45 02.4 +34 03 23   0.4708  1.4200   147.6    22.2    23.3
    ...
    2019 10 21    00 56 22.6 +38 05 48   0.2801  1.2473   150.6    23.1    21.9
    ...
    2019 10 29    23 51 47.6 +39 24 13   0.1956  1.1497   139.7    34.0    21.3
    ...
    2019 11 04    22 24 14.8 +36 56 16   0.1459  1.0741   120.9    52.4    21.0
    2019 11 05    22 05 38.6 +35 48 43   0.1395  1.0613   116.5    56.7    21.0
    2019 11 06    21 46 04.8 +34 23 14   0.1337  1.0485   111.8    61.4    21.0
    ...
    2019 11 12    19 42 43.7 +19 10 11   0.1181  0.9705    77.1    96.0    21.8
    ...
    2019 11 20    17 42 27.0 -04 14 36   0.1536  0.8646    33.7   140.6    25.7
    ...
    2019 12 05    16 09 53.0 -21 07 55   0.3204  0.6695     7.8   168.5
    
    A. U. Tomatic                (C) Copyright 2019 MPC           M.P.E.C. 2019-V61
    


    Read MPEC 2019-V60 Read MPEC 2019-V62


    MPEC number:

    Enter an MPEC number in one of the following forms:

    • 1997-B01 (the full form)
    • J97B01 (the packed version of the full form)
    • B01 (the abbreviated form)